Regional Weather Roundup
Issued by NWS

Home | Current Version | Previous Version | Text Only | Print | Product List | Glossary Off
Versions: 1 2 3 4 5 6 7 8 9 10 11 12 13 14 15 16 17 18 19 20 21 22 23 24 25 26 27 28 29 30 31 32 33 34 35 36 37 38 39 40 41 42 43 44 45 46 47 48 49 50

601
ASUS43 KFSD 251910
RWRSD

WEATHER ROUNDUP FOR SOUTH DAKOTA
NATIONAL WEATHER SERVICE SIOUX FALLS SD
200 PM CDT SAT MAR 25 2017

NOTE: "FAIR" INDICATES FEW OR NO CLOUDS BELOW 12,000 FEET WITH NO
SIGNIFICANT WEATHER AND/OR OBSTRUCTIONS TO VISIBILITY.


SDZ001>005-009-010-012>017-252000-
NORTHWEST AND NORTH CENTRAL SOUTH DAKOTA

CITY           SKY/WX    TMP DP  RH WIND       PRES   REMARKS
BUFFALO          N/A     60  34  37 N8        29.84F
FAITH            N/A     54  31  41 MISG      29.91F
MOBRIDGE       MOSUNNY   45  32  60 S13       29.99F
$$

SDZ012>016-024>037-041>051-057-063-072>074-252000-
SOUTHWEST AND SOUTH CENTRAL SOUTH DAKOTA

CITY           SKY/WX    TMP DP  RH WIND       PRES   REMARKS
RAPID CTY ARPT SUNNY     64  32  30 NE8       29.88F
PIERRE         MOSUNNY   49  34  56 SE10      30.00F
CUSTER         CLOUDY    58  25  28 VRB3      29.91F
ELLSWORTH AFB  CLOUDY    62  32  33 NE3       29.89F
PHILIP         SUNNY     63  21  20 S22G28    29.92F
PINE RIDGE     SUNNY     67  31  26 S17       29.89F
SPEARFISH      FAIR      57  34  41 N8        29.92F
WINNER         FAIR      55  33  43 SE10      30.00F
$$

SDZ004>011-016>023-039-040-252000-
NORTHEAST SOUTH DAKOTA

CITY           SKY/WX    TMP DP  RH WIND       PRES   REMARKS
ABERDEEN       PTSUNNY   43  31  62 S10       30.09F
WATERTOWN      CLOUDY    36  32  85 E10       30.07F
BROOKINGS      CLOUDY    38  34  85 E12       30.06F
SISSETON         N/A     36  32  85 S7        30.12F
$$

SDZ017-020-022-023-036>040-048>070-252000-
SOUTHEAST SOUTH DAKOTA

CITY           SKY/WX    TMP DP  RH WIND       PRES   REMARKS
SIOUX FALLS    CLOUDY    43  37  79 NE15      30.04F
HURON          CLOUDY    42  33  70 VRB7      30.07F
CHAMBERLAIN    SUNNY     50  36  59 E8        30.03F
MITCHELL       CLOUDY    40  35  83 E7        30.07F
YANKTON        CLOUDY    39  36  87 N14       30.04F
$$

ABBREVIATIONS USED IN REMARKS
   TC - TEMPERATURE IN CELSIUS
  WCI - WIND CHILL INDEX
   HX - HEAT INDEX
  VSB - VISIBILITY





USA.gov is the U.S. government's official web portal to all federal, state and local government web resources and services.